When you browse on this site, cookies collect data to enhance your experience and personalize the content and advertising you see.
Visit our Privacy Policy to learn more. By continuing to use the site, you agree to this use of cookies and data.
  • In Hungary
  • List of Countries
  • For 7 days
  • Water Temperature
  • Weather Map
  • News
  • Weather Widgets
  • user-avatar
    Login

    Hourly Weather Piskuny

    Today, 17 September, Tuesday

    Time Temperature Precipitation Wind Pressure Humidity
    00:00 +7°C° 0 mm 4 mps 742 mmHg 92%
    01:00 +7°C° 0 mm 4 mps 742 mmHg 93%
    02:00 +7°C° 0 mm 4 mps 742 mmHg 93%
    03:00 +7°C° 0.1 mm 4 mps 742 mmHg 93%
    04:00 +7°C° 0.1 mm 4 mps 742 mmHg 94%
    05:00 +7°C° 0.1 mm 4 mps 742 mmHg 94%
    06:00 +8°C° 0 mm 3 mps 742 mmHg 92%
    07:00 +9°C° 0 mm 3 mps 742 mmHg 90%
    08:00 +9°C° 0 mm 3 mps 742 mmHg 88%
    09:00 +10°C° 0.1 mm 4 mps 743 mmHg 84%
    10:00 +11°C° 0.1 mm 4 mps 743 mmHg 80%
    11:00 +11°C° 0.1 mm 4 mps 743 mmHg 75%
    12:00 +12°C° 0.2 mm 4 mps 743 mmHg 73%
    13:00 +12°C° 0.2 mm 4 mps 743 mmHg 70%
    14:00 +13°C° 0.2 mm 4 mps 743 mmHg 67%
    15:00 +12°C° 0.3 mm 4 mps 742 mmHg 73%
    16:00 +11°C° 0.3 mm 3 mps 742 mmHg 79%
    17:00 +11°C° 0.3 mm 3 mps 742 mmHg 85%
    18:00 +9°C° 0.1 mm 2 mps 742 mmHg 89%
    19:00 +8°C° 0.1 mm 2 mps 742 mmHg 92%
    20:00 +7°C° 0.1 mm 2 mps 742 mmHg 95%
    21:00 +7°C° 0 mm 1 mps 742 mmHg 95%
    22:00 +7°C° 0 mm 1 mps 741 mmHg 95%
    23:00 +6°C° 0 mm 1 mps 741 mmHg 96%

    Tomorrow, 18 September, Wednesday

    Time Temperature Precipitation Wind Pressure Humidity
    00:00 +6°C° 0 mm 1 mps 741 mmHg 96%
    01:00 +5°C° 0 mm 0 mps 741 mmHg 96%
    02:00 +4°C° 0 mm 0 mps 741 mmHg 96%
    03:00 +5°C° 0 mm 1 mps 741 mmHg 96%
    04:00 +5°C° 0 mm 1 mps 741 mmHg 97%
    05:00 +5°C° 0 mm 1 mps 741 mmHg 97%
    06:00 +5°C° 0 mm 2 mps 741 mmHg 96%
    07:00 +6°C° 0 mm 2 mps 742 mmHg 94%
    08:00 +7°C° 0 mm 2 mps 742 mmHg 92%
    09:00 +8°C° 0 mm 2 mps 742 mmHg 86%
    10:00 +9°C° 0 mm 2 mps 743 mmHg 81%
    11:00 +10°C° 0 mm 2 mps 743 mmHg 75%
    12:00 +11°C° 0.1 mm 3 mps 744 mmHg 72%
    13:00 +12°C° 0.1 mm 3 mps 744 mmHg 68%
    14:00 +13°C° 0.1 mm 3 mps 744 mmHg 64%
    15:00 +12°C° 0.4 mm 3 mps 745 mmHg 71%
    16:00 +11°C° 0.4 mm 3 mps 745 mmHg 78%
    17:00 +10°C° 0.4 mm 3 mps 746 mmHg 85%
    18:00 +9°C° 0.1 mm 3 mps 747 mmHg 88%
    19:00 +8°C° 0.1 mm 3 mps 747 mmHg 91%
    20:00 +7°C° 0.1 mm 2 mps 748 mmHg 94%
    21:00 +7°C° 0 mm 2 mps 749 mmHg 94%
    22:00 +6°C° 0 mm 2 mps 749 mmHg 94%
    23:00 +6°C° 0 mm 2 mps 750 mmHg 95%

    Day after tomorrow, 19 September, Thursday

    Time Temperature Precipitation Wind Pressure Humidity
    00:00 +5°C° 0 mm 2 mps 750 mmHg 94%
    01:00 +5°C° 0 mm 2 mps 751 mmHg 94%
    02:00 +4°C° 0 mm 2 mps 751 mmHg 94%
    03:00 +5°C° 0 mm 1 mps 751 mmHg 93%
    04:00 +5°C° 0 mm 1 mps 752 mmHg 93%
    05:00 +5°C° 0 mm 1 mps 752 mmHg 93%
    06:00 +5°C° 0 mm 2 mps 752 mmHg 91%
    07:00 +5°C° 0 mm 2 mps 753 mmHg 89%
    08:00 +6°C° 0 mm 2 mps 753 mmHg 87%
    09:00 +7°C° 0 mm 2 mps 753 mmHg 80%
    10:00 +8°C° 0 mm 2 mps 753 mmHg 72%
    11:00 +9°C° 0 mm 2 mps 753 mmHg 64%
    12:00 +9°C° 0 mm 2 mps 754 mmHg 62%
    13:00 +11°C° 0 mm 1 mps 754 mmHg 60%
    14:00 +11°C° 0 mm 1 mps 754 mmHg 58%
    15:00 +11°C° 0 mm 1 mps 753 mmHg 62%
    16:00 +11°C° 0 mm 1 mps 753 mmHg 66%
    17:00 +10°C° 0 mm 1 mps 753 mmHg 70%
    18:00 +9°C° 0 mm 1 mps 753 mmHg 74%
    19:00 +8°C° 0 mm 1 mps 754 mmHg 77%
    20:00 +7°C° 0 mm 1 mps 754 mmHg 80%
    21:00 +6°C° 0 mm 1 mps 754 mmHg 84%
    22:00 +6°C° 0 mm 1 mps 754 mmHg 87%
    23:00 +5°C° 0 mm 1 mps 754 mmHg 90%

    20 September, Friday

    Time Temperature Precipitation Wind Pressure Humidity
    00:00 +5°C° 0 mm 1 mps 754 mmHg 91%
    01:00 +4°C° 0 mm 1 mps 754 mmHg 91%
    02:00 +4°C° 0 mm 1 mps 754 mmHg 92%
    03:00 +4°C° 0 mm 1 mps 754 mmHg 92%
    04:00 +4°C° 0 mm 1 mps 754 mmHg 92%
    05:00 +4°C° 0 mm 1 mps 755 mmHg 92%
    06:00 +4°C° 0 mm 2 mps 755 mmHg 88%
    07:00 +4°C° 0 mm 2 mps 755 mmHg 85%
    08:00 +5°C° 0 mm 2 mps 756 mmHg 81%
    09:00 +5°C° 0 mm 3 mps 756 mmHg 74%
    10:00 +8°C° 0 mm 3 mps 756 mmHg 67%
    11:00 +9°C° 0 mm 3 mps 757 mmHg 61%
    12:00 +8°C° 0.1 mm 4 mps 757 mmHg 60%
    13:00 +8°C° 0.1 mm 4 mps 757 mmHg 60%
    14:00 +8°C° 0.1 mm 4 mps 757 mmHg 60%
    15:00 +8°C° 0 mm 4 mps 757 mmHg 62%
    16:00 +8°C° 0 mm 3 mps 758 mmHg 64%
    17:00 +8°C° 0 mm 3 mps 758 mmHg 66%
    18:00 +5°C° 0 mm 3 mps 758 mmHg 72%
    19:00 +5°C° 0 mm 2 mps 759 mmHg 78%
    20:00 +3°C° 0 mm 2 mps 760 mmHg 84%
    21:00 +3°C° 0 mm 2 mps 760 mmHg 84%
    22:00 +2°C° 0 mm 2 mps 760 mmHg 84%
    23:00 +2°C° 0 mm 1 mps 760 mmHg 84%

    21 September, Saturday

    Time Temperature Precipitation Wind Pressure Humidity
    00:00 +2°C° 0 mm 1 mps 760 mmHg 84%
    01:00 +2°C° 0 mm 1 mps 761 mmHg 83%
    02:00 +2°C° 0 mm 1 mps 761 mmHg 83%
    03:00 +1°C° 0 mm 2 mps 761 mmHg 82%
    04:00 +1°C° 0 mm 2 mps 761 mmHg 81%
    05:00 +1°C° 0 mm 2 mps 761 mmHg 81%
    06:00 +2°C° 0 mm 2 mps 761 mmHg 78%
    07:00 +2°C° 0 mm 3 mps 760 mmHg 76%
    08:00 +4°C° 0 mm 3 mps 760 mmHg 73%
    09:00 +4°C° 0.2 mm 3 mps 760 mmHg 79%
    10:00 +4°C° 0.2 mm 3 mps 760 mmHg 85%
    11:00 +4°C° 0.2 mm 4 mps 759 mmHg 92%
    12:00 +4°C° 0.5 mm 4 mps 759 mmHg 93%
    13:00 +5°C° 0.5 mm 4 mps 758 mmHg 94%
    14:00 +5°C° 0.5 mm 4 mps 758 mmHg 95%
    15:00 +5°C° 0.8 mm 4 mps 757 mmHg 96%
    16:00 +5°C° 0.8 mm 4 mps 757 mmHg 97%
    17:00 +6°C° 0.8 mm 4 mps 756 mmHg 97%
    18:00 +7°C° 0.6 mm 4 mps 756 mmHg 96%
    19:00 +8°C° 0.6 mm 4 mps 756 mmHg 95%
    20:00 +10°C° 0.6 mm 4 mps 755 mmHg 94%
    21:00 +10°C° 0 mm 4 mps 755 mmHg 94%
    22:00 +9°C° 0 mm 5 mps 755 mmHg 93%
    23:00 +10°C° 0 mm 5 mps 755 mmHg 92%

    22 September, Sunday

    Time Temperature Precipitation Wind Pressure Humidity
    00:00 +10°C° 0 mm 5 mps 755 mmHg 92%
    01:00 +9°C° 0 mm 5 mps 755 mmHg 92%
    02:00 +9°C° 0 mm 5 mps 755 mmHg 92%
    03:00 +9°C° 0 mm 5 mps 755 mmHg 92%
    04:00 +9°C° 0 mm 5 mps 755 mmHg 93%
    05:00 +9°C° 0 mm 5 mps 755 mmHg 94%
    06:00 +10°C° 0 mm 5 mps 755 mmHg 92%
    07:00 +10°C° 0 mm 5 mps 755 mmHg 90%
    08:00 +11°C° 0 mm 6 mps 755 mmHg 89%
    09:00 +11°C° 0 mm 6 mps 755 mmHg 85%
    10:00 +13°C° 0 mm 6 mps 756 mmHg 81%
    11:00 +13°C° 0 mm 6 mps 756 mmHg 78%
    12:00 +13°C° 0 mm 6 mps 757 mmHg 71%
    13:00 +13°C° 0 mm 6 mps 757 mmHg 63%
    14:00 +13°C° 0 mm 5 mps 758 mmHg 56%
    15:00 +13°C° 0 mm 4 mps 758 mmHg 59%
    16:00 +12°C° 0 mm 3 mps 759 mmHg 63%
    17:00 +12°C° 0 mm 2 mps 759 mmHg 66%
    18:00 +9°C° 0 mm 2 mps 760 mmHg 70%
    19:00 +7°C° 0 mm 2 mps 761 mmHg 73%
    20:00 +6°C° 0 mm 2 mps 761 mmHg 77%
    21:00 +5°C° 0 mm 2 mps 761 mmHg 79%
    22:00 +4°C° 0 mm 2 mps 762 mmHg 82%
    23:00 +4°C° 0 mm 2 mps 762 mmHg 84%
    Show more